Voltar ao catálogo

STARLINK-31085

AtivoComunicaçõesVLEO
NORAD 58609·PAYLOAD·🇺🇸 United States

Lançado Dec 19, 2023 de Cape Canaveral Space Force Station

Loading…

Próximas Passagens (próximas 24 horas)

TLE

AtualizadoSource: CelesTrak SupGP

Época: Sep 15, 2026, 01:57 UTC

1 58609C 23200W   26258.08173611  .00014541  00000+0  52674-3 0  2584
2 58609  42.9991 179.3756 0001395 272.4087 119.8420 15.27568026    18

Acompanhe STARLINK-31085 em tempo real com AllMySat

Download on the App Store